Time,TemperatureF,DewpointF,PressureIn,WindDirection,WindDirectionDegrees,WindSpeedMPH,WindSpeedGustMPH,Humidity,HourlyPrecipIn,Conditions,Clouds,dailyrainin,SoftwareType,DateUTC
2013-01-29 00:01:00,15.0,7.0,-100.00,South,173,3.0,3.0,72,-99.99,,,-99.99,,2013-01-29 07:01:00,
2013-01-29 00:11:00,15.0,7.0,-100.00,South,173,3.0,3.0,72,-99.99,,,-99.99,,2013-01-29 07:11:00,
2013-01-29 00:21:00,14.0,7.0,-100.00,SSW,212,2.0,2.0,73,-99.99,,,-99.99,,2013-01-29 07:21:00,
2013-01-29 00:31:00,14.0,7.0,-100.00,SSW,212,2.0,2.0,73,-99.99,,,-99.99,,2013-01-29 07:31:00,
2013-01-29 00:41:00,14.0,7.0,-100.00,SSW,212,2.0,2.0,73,-99.99,,,-99.99,,2013-01-29 07:41:00,
2013-01-29 02:31:00,13.0,7.0,-100.00,SSE,161,6.0,9.0,78,-99.99,,,-99.99,,2013-01-29 09:31:00,
2013-01-29 02:42:00,12.0,7.0,-100.00,South,175,4.0,9.0,78,-99.99,,,-99.99,,2013-01-29 09:42:00,
2013-01-29 02:51:00,12.0,7.0,-100.00,South,175,4.0,9.0,78,-99.99,,,-99.99,,2013-01-29 09:51:00,
2013-01-29 03:01:00,10.0,5.0,-100.00,SW,232,3.0,6.0,77,-99.99,,,-99.99,,2013-01-29 10:01:00,
2013-01-29 03:11:00,12.0,7.0,-100.00,South,171,9.0,10.0,82,-99.99,,,-99.99,,2013-01-29 10:11:00,
2013-01-29 03:20:00,12.0,8.0,-100.00,SSE,155,5.0,11.0,82,-99.99,,,-99.99,,2013-01-29 10:20:00,
2013-01-29 03:21:00,12.0,7.0,-100.00,South,171,9.0,10.0,82,-99.99,,,-99.99,,2013-01-29 10:21:00,
2013-01-29 03:32:00,12.0,7.0,-100.00,SSE,164,9.0,11.0,80,-99.99,,,-99.99,,2013-01-29 10:32:00,
2013-01-29 03:41:00,12.0,7.0,-100.00,ESE,103,6.0,10.0,79,-99.99,,,-99.99,,2013-01-29 10:41:00,
2013-01-29 03:51:00,12.0,8.0,-100.00,SSE,155,5.0,11.0,82,-99.99,,,-99.99,,2013-01-29 10:51:00,
2013-01-29 04:01:00,12.0,8.0,-100.00,SSE,155,5.0,11.0,82,-99.99,,,-99.99,,2013-01-29 11:01:00,
2013-01-29 04:10:00,13.0,8.0,-100.00,South,174,7.0,11.0,82,-99.99,,,-99.99,,2013-01-29 11:10:00,
2013-01-29 04:11:00,12.0,8.0,-100.00,SSE,155,5.0,11.0,82,-99.99,,,-99.99,,2013-01-29 11:11:00,
2013-01-29 04:32:00,12.0,8.0,-100.00,SE,139,5.0,8.0,85,-99.99,,,-99.99,,2013-01-29 11:32:00,
2013-01-29 04:42:00,13.0,8.0,-100.00,South,174,7.0,11.0,82,-99.99,,,-99.99,,2013-01-29 11:42:00,
2013-01-29 04:52:00,13.0,8.0,-100.00,South,174,7.0,11.0,82,-99.99,,,-99.99,,2013-01-29 11:52:00,
2013-01-29 05:02:00,13.0,8.0,-100.00,South,174,7.0,11.0,82,-99.99,,,-99.99,,2013-01-29 12:02:00,
2013-01-29 07:43:00,13.0,10.0,-100.00,SSW,212,3.0,7.0,88,-99.99,,,-99.99,,2013-01-29 14:43:00,
2013-01-29 07:52:00,13.0,10.0,-100.00,SSW,212,3.0,7.0,88,-99.99,,,-99.99,,2013-01-29 14:52:00,
2013-01-29 08:02:00,13.0,10.0,-100.00,SSW,212,3.0,7.0,88,-99.99,,,-99.99,,2013-01-29 15:02:00,
2013-01-29 08:11:00,13.0,10.0,-100.00,ENE,67,1.0,3.0,88,-99.99,,,-99.99,,2013-01-29 15:11:00,
2013-01-29 08:21:00,13.0,10.0,-100.00,ENE,67,1.0,3.0,88,-99.99,,,-99.99,,2013-01-29 15:21:00,
2013-01-29 08:32:00,13.0,10.0,-100.00,SSE,157,8.0,9.0,88,-99.99,,,-99.99,,2013-01-29 15:32:00,
2013-01-29 08:42:00,13.0,11.0,-100.00,SE,137,3.0,5.0,87,-99.99,,,-99.99,,2013-01-29 15:42:00,
2013-01-29 08:52:00,13.0,11.0,-100.00,SE,137,3.0,5.0,87,-99.99,,,-99.99,,2013-01-29 15:52:00,
2013-01-29 09:02:00,13.0,11.0,-100.00,SE,137,3.0,5.0,87,-99.99,,,-99.99,,2013-01-29 16:02:00,
2013-01-29 09:12:00,14.0,11.0,-100.00,SE,129,7.0,7.0,87,-99.99,,,-99.99,,2013-01-29 16:12:00,
2013-01-29 09:21:00,14.0,11.0,-100.00,SE,129,7.0,7.0,87,-99.99,,,-99.99,,2013-01-29 16:21:00,
2013-01-29 09:32:00,14.0,11.0,-100.00,SSE,159,6.0,9.0,86,-99.99,,,-99.99,,2013-01-29 16:32:00,
2013-01-29 09:42:00,14.0,11.0,-100.00,SSW,209,4.0,7.0,86,-99.99,,,-99.99,,2013-01-29 16:42:00,
2013-01-29 09:52:00,15.0,11.0,-100.00,WSW,246,2.0,7.0,87,-99.99,,,-99.99,,2013-01-29 16:52:00,
2013-01-29 10:02:00,15.0,11.0,-100.00,WSW,246,2.0,7.0,87,-99.99,,,-99.99,,2013-01-29 17:02:00,
2013-01-29 10:12:00,15.0,12.0,-100.00,SSE,158,5.0,9.0,86,-99.99,,,-99.99,,2013-01-29 17:12:00,
2013-01-29 10:21:00,15.0,12.0,-100.00,SSE,158,5.0,9.0,86,-99.99,,,-99.99,,2013-01-29 17:21:00,
2013-01-29 10:32:00,16.0,12.0,-100.00,South,171,6.0,9.0,83,-99.99,,,-99.99,,2013-01-29 17:32:00,
2013-01-29 10:42:00,16.0,12.0,-100.00,South,171,6.0,9.0,83,-99.99,,,-99.99,,2013-01-29 17:42:00,
2013-01-29 10:52:00,15.0,11.0,-100.00,SSW,197,9.0,13.0,83,-99.99,,,-99.99,,2013-01-29 17:52:00,
2013-01-29 11:03:00,15.0,11.0,-100.00,SSW,197,9.0,13.0,83,-99.99,,,-99.99,,2013-01-29 18:03:00,
2013-01-29 11:12:00,15.0,12.0,-100.00,SSW,197,5.0,9.0,84,-99.99,,,-99.99,,2013-01-29 18:12:00,
2013-01-29 11:22:00,15.0,12.0,-100.00,SSW,197,5.0,9.0,84,-99.99,,,-99.99,,2013-01-29 18:22:00,
2013-01-29 11:33:00,15.0,12.0,-100.00,SW,217,7.0,10.0,85,-99.99,,,-99.99,,2013-01-29 18:33:00,
2013-01-29 11:42:00,16.0,13.0,-100.00,SSW,193,7.0,8.0,87,-99.99,,,-99.99,,2013-01-29 18:42:00,
2013-01-29 11:51:00,16.0,13.0,-100.00,SSW,193,7.0,8.0,87,-99.99,,,-99.99,,2013-01-29 18:51:00,
2013-01-29 12:01:00,16.0,13.0,-100.00,West,267,5.0,6.0,87,-99.99,,,-99.99,,2013-01-29 19:01:00,
2013-01-29 12:11:00,17.0,14.0,-100.00,West,261,5.0,9.0,84,-99.99,,,-99.99,,2013-01-29 19:11:00,
2013-01-29 12:22:00,17.0,14.0,-100.00,West,261,5.0,9.0,84,-99.99,,,-99.99,,2013-01-29 19:22:00,
2013-01-29 12:31:00,17.0,12.0,-100.00,SW,231,8.0,10.0,81,-99.99,,,-99.99,,2013-01-29 19:31:00,
2013-01-29 12:42:00,17.0,12.0,-100.00,SW,231,8.0,10.0,81,-99.99,,,-99.99,,2013-01-29 19:42:00,
2013-01-29 12:51:00,18.0,12.0,-100.00,SW,224,6.0,9.0,80,-99.99,,,-99.99,,2013-01-29 19:51:00,
2013-01-29 13:01:00,18.0,12.0,-100.00,SW,224,6.0,9.0,80,-99.99,,,-99.99,,2013-01-29 20:01:00,
2013-01-29 13:12:00,18.0,13.0,-100.00,SSW,211,4.0,8.0,81,-99.99,,,-99.99,,2013-01-29 20:12:00,
2013-01-29 13:22:00,18.0,13.0,-100.00,SSW,211,4.0,8.0,81,-99.99,,,-99.99,,2013-01-29 20:22:00,
2013-01-29 13:32:00,18.0,14.0,-100.00,SSW,207,4.0,5.0,83,-99.99,,,-99.99,,2013-01-29 20:32:00,
2013-01-29 13:42:00,22.0,16.0,-100.00,SSW,194,4.0,7.0,80,-99.99,,,-99.99,,2013-01-29 20:42:00,
2013-01-29 13:53:00,22.0,16.0,-100.00,SSW,194,4.0,7.0,80,-99.99,,,-99.99,,2013-01-29 20:53:00,
2013-01-29 14:02:00,20.0,15.0,-100.00,SW,225,7.0,11.0,81,-99.99,,,-99.99,,2013-01-29 21:02:00,
2013-01-29 14:12:00,20.0,15.0,-100.00,SW,225,7.0,11.0,81,-99.99,,,-99.99,,2013-01-29 21:12:00,
2013-01-29 14:21:00,20.0,15.0,-100.00,SW,225,7.0,11.0,81,-99.99,,,-99.99,,2013-01-29 21:21:00,
2013-01-29 14:33:00,21.0,15.0,-100.00,West,274,5.0,7.0,77,-99.99,,,-99.99,,2013-01-29 21:33:00,
2013-01-29 14:40:00,23.0,14.0,-100.00,NW,318,12.0,21.0,69,-99.99,,,-99.99,,2013-01-29 21:40:00,
2013-01-29 14:42:00,21.0,15.0,-100.00,West,274,5.0,7.0,77,-99.99,,,-99.99,,2013-01-29 21:42:00,
2013-01-29 14:52:00,22.0,15.0,-100.00,NW,306,8.0,13.0,74,-99.99,,,-99.99,,2013-01-29 21:52:00,
2013-01-29 15:01:00,22.0,15.0,-100.00,NW,306,8.0,13.0,74,-99.99,,,-99.99,,2013-01-29 22:01:00,
2013-01-29 15:12:00,23.0,14.0,-100.00,NW,318,12.0,21.0,69,-99.99,,,-99.99,,2013-01-29 22:12:00,
2013-01-29 15:21:00,23.0,14.0,-100.00,NW,318,12.0,21.0,69,-99.99,,,-99.99,,2013-01-29 22:21:00,
2013-01-29 15:32:00,23.0,14.0,-100.00,NW,318,12.0,21.0,69,-99.99,,,-99.99,,2013-01-29 22:32:00,
2013-01-29 15:53:00,22.0,13.0,-100.00,North,349,12.0,21.0,67,-99.99,,,-99.99,,2013-01-29 22:53:00,
2013-01-29 16:02:00,22.0,12.0,-100.00,NNW,346,13.0,19.0,65,-99.99,,,-99.99,,2013-01-29 23:02:00,
2013-01-29 16:11:00,22.0,12.0,-100.00,NNW,346,13.0,19.0,65,-99.99,,,-99.99,,2013-01-29 23:11:00,
2013-01-29 16:22:00,22.0,13.0,-100.00,NW,325,16.0,20.0,67,-99.99,,,-99.99,,2013-01-29 23:22:00,
2013-01-29 16:32:00,22.0,13.0,-100.00,North,349,11.0,22.0,67,-99.99,,,-99.99,,2013-01-29 23:32:00,
2013-01-29 16:41:00,22.0,13.0,-100.00,NNW,341,13.0,19.0,65,-99.99,,,-99.99,,2013-01-29 23:41:00,
2013-01-29 16:52:00,22.0,13.0,-100.00,NNW,341,13.0,19.0,65,-99.99,,,-99.99,,2013-01-29 23:52:00,
2013-01-29 17:02:00,22.0,11.0,-100.00,NW,325,17.0,25.0,63,-99.99,,,-99.99,,2013-01-30 00:02:00,
2013-01-29 17:11:00,22.0,11.0,-100.00,NW,325,17.0,25.0,63,-99.99,,,-99.99,,2013-01-30 00:11:00,
2013-01-29 17:21:00,21.0,10.0,-100.00,NNW,342,16.0,26.0,63,-99.99,,,-99.99,,2013-01-30 00:21:00,
2013-01-29 17:32:00,20.0,10.0,-100.00,North,355,17.0,27.0,64,-99.99,,,-99.99,,2013-01-30 00:32:00,
2013-01-29 17:42:00,20.0,10.0,-100.00,North,355,17.0,27.0,64,-99.99,,,-99.99,,2013-01-30 00:42:00,
2013-01-29 17:52:00,19.0,10.0,-100.00,North,352,13.0,22.0,67,-99.99,,,-99.99,,2013-01-30 00:52:00,
2013-01-29 18:01:00,19.0,10.0,-100.00,North,352,13.0,22.0,67,-99.99,,,-99.99,,2013-01-30 01:01:00,
2013-01-29 18:11:00,19.0,10.0,-100.00,North,351,12.0,20.0,69,-99.99,,,-99.99,,2013-01-30 01:11:00,
2013-01-29 18:22:00,19.0,10.0,-100.00,North,351,12.0,20.0,69,-99.99,,,-99.99,,2013-01-30 01:22:00,
2013-01-29 18:31:00,19.0,11.0,-100.00,NNW,346,11.0,18.0,71,-99.99,,,-99.99,,2013-01-30 01:31:00,
2013-01-29 18:42:00,18.0,11.0,-100.00,NNW,346,11.0,15.0,71,-99.99,,,-99.99,,2013-01-30 01:42:00,
2013-01-29 18:51:00,18.0,11.0,-100.00,NNW,346,11.0,15.0,71,-99.99,,,-99.99,,2013-01-30 01:51:00,
2013-01-29 19:02:00,18.0,11.0,-100.00,North,354,11.0,15.0,71,-99.99,,,-99.99,,2013-01-30 02:02:00,
2013-01-29 19:12:00,18.0,11.0,-100.00,North,356,10.0,14.0,72,-99.99,,,-99.99,,2013-01-30 02:12:00,
2013-01-29 19:21:00,18.0,11.0,-100.00,North,356,10.0,14.0,72,-99.99,,,-99.99,,2013-01-30 02:21:00,
2013-01-29 19:33:00,18.0,11.0,-100.00,North,356,10.0,14.0,72,-99.99,,,-99.99,,2013-01-30 02:33:00,
2013-01-29 19:42:00,18.0,11.0,-100.00,North,356,10.0,14.0,72,-99.99,,,-99.99,,2013-01-30 02:42:00,
2013-01-29 19:52:00,18.0,11.0,-100.00,North,357,10.0,15.0,71,-99.99,,,-99.99,,2013-01-30 02:52:00,
2013-01-29 20:02:00,19.0,11.0,-100.00,North,350,12.0,18.0,70,-99.99,,,-99.99,,2013-01-30 03:02:00,
2013-01-29 20:11:00,19.0,11.0,-100.00,North,350,12.0,18.0,70,-99.99,,,-99.99,,2013-01-30 03:11:00,
2013-01-29 20:21:00,19.0,11.0,-100.00,North,350,12.0,18.0,70,-99.99,,,-99.99,,2013-01-30 03:21:00,
2013-01-29 20:31:00,19.0,11.0,-100.00,North,350,12.0,18.0,70,-99.99,,,-99.99,,2013-01-30 03:31:00,
2013-01-29 20:41:00,19.0,11.0,-100.00,North,354,13.0,21.0,70,-99.99,,,-99.99,,2013-01-30 03:41:00,
2013-01-29 20:51:00,19.0,11.0,-100.00,North,354,13.0,21.0,70,-99.99,,,-99.99,,2013-01-30 03:51:00,
2013-01-29 21:02:00,18.0,11.0,-100.00,North,6,11.0,15.0,72,-99.99,,,-99.99,,2013-01-30 04:02:00,
2013-01-29 21:11:00,18.0,11.0,-100.00,North,6,11.0,15.0,72,-99.99,,,-99.99,,2013-01-30 04:11:00,
2013-01-29 21:21:00,18.0,11.0,-100.00,North,6,11.0,15.0,72,-99.99,,,-99.99,,2013-01-30 04:21:00,
2013-01-29 21:32:00,18.0,11.0,-100.00,NNE,13,17.0,21.0,72,-99.99,,,-99.99,,2013-01-30 04:32:00,
2013-01-29 21:41:00,18.0,11.0,-100.00,NNE,13,17.0,21.0,72,-99.99,,,-99.99,,2013-01-30 04:41:00,
2013-01-29 21:52:00,18.0,11.0,-100.00,North,8,13.0,16.0,73,-99.99,,,-99.99,,2013-01-30 04:52:00,
2013-01-29 22:03:00,17.0,11.0,-100.00,North,1,9.0,11.0,74,-99.99,,,-99.99,,2013-01-30 05:03:00,
2013-01-29 22:11:00,17.0,11.0,-100.00,North,1,9.0,11.0,74,-99.99,,,-99.99,,2013-01-30 05:11:00,
2013-01-29 22:22:00,18.0,11.0,-100.00,North,11,11.0,11.0,75,-99.99,,,-99.99,,2013-01-30 05:22:00,
2013-01-29 22:32:00,18.0,11.0,-100.00,North,11,10.0,11.0,72,-99.99,,,-99.99,,2013-01-30 05:32:00,
2013-01-29 22:42:00,18.0,11.0,-100.00,North,11,10.0,11.0,72,-99.99,,,-99.99,,2013-01-30 05:42:00,
2013-01-29 22:52:00,18.0,11.0,-100.00,North,11,10.0,11.0,72,-99.99,,,-99.99,,2013-01-30 05:52:00,
2013-01-29 23:02:00,18.0,11.0,-100.00,North,11,10.0,11.0,72,-99.99,,,-99.99,,2013-01-30 06:02:00,
2013-01-29 23:11:00,19.0,10.0,-100.00,NNE,15,13.0,14.0,68,-99.99,,,-99.99,,2013-01-30 06:11:00,
2013-01-29 23:21:00,19.0,10.0,-100.00,NNE,15,13.0,14.0,68,-99.99,,,-99.99,,2013-01-30 06:21:00,
2013-01-29 23:31:00,20.0,10.0,-100.00,North,5,9.0,14.0,65,-99.99,,,-99.99,,2013-01-30 06:31:00,
2013-01-29 23:41:00,20.0,10.0,-100.00,North,354,8.0,13.0,66,-99.99,,,-99.99,,2013-01-30 06:41:00,
2013-01-29 23:51:00,19.0,11.0,-100.00,North,1,6.0,8.0,69,-99.99,,,-99.99,,2013-01-30 06:51:00,